Starlink 35677

operational
NORAD ID: 66220 Int'l Des: 2025-244 Owner: SPXS Country: US Constellation: starlink
NOTLE

Starlink 35677について

説明を読み込み中...

リアルタイム位置

3D地球を読み込み中...

次回通過

高度履歴

Altitude vs Time

uPlot chart will show altitude changes over time

軌道要素

1 66220U 25244Q 25349.91668981 -.00009883 00000-0 -23738-3 0 9990
2 66220 53.1606 260.8980 0001226 83.4548 42.9475 15.39623007 5872
Epoch: Dec 15, 2025 • Age: 9 hours

現在のステータス

高度 453.0 km
速度 7.65 km/s
衛星直下点 53.19°N, 150.91°E
打ち上げ日 Oct 28, 2025
運用期間 0.1 years
タイプ internet

技術仕様

分類 Payload
質量 575.00 kg
乾燥質量 530.00 kg
総質量 575.00 kg
長さ 0.30 m
直径 4.10 m
スパン 29.00 m
形状 Box + pan
製造者 SPXS
バスタイプ Starlink V2MO
フェーズステータス In Orbit
所有者/国 SPXS/US

大規模コンステレーション

Loading constellations...